Regional Weather Roundup
Issued by NWS

Home | Current Version | Previous Version | Graphics & Text | Print | Product List | Glossary On
Versions: 1 2 3 4 5 6 7 8 9 10 11 12 13 14 15 16 17 18 19 20 21 22 23 24 25 26 27 28 29 30 31 32 33 34 35 36 37 38 39 40 41 42 43 44 45 46 47 48 49 50
000
ASUS43 KLMK 041110
RWRKY
KENTUCKY REGIONAL WEATHER ROUNDUP
NATIONAL WEATHER SERVICE LOUISVILLE KY
700 AM EDT WED MAY 04 2016

NOTE "FAIR" INDICATES FEW OR NO CLOUDS BELOW 12,000 FEET
WITH NO SIGNIFICANT WEATHER AND/OR OBSTRUCTIONS TO VISIBILITY.

KYZ001>023-026-027-061>063-070>075-041200-
WESTERN AND SOUTH CENTRAL KENTUCKY

CITY           SKY/WX    TMP DP  RH WIND       PRES   REMARKS
PADUCAH        CLEAR     50  46  86 SW8       29.81F
HENDERSON      CLEAR     52  43  71 SW9       29.77F
OWENSBORO      PTCLDY    49  46  89 SW10      29.78F
HOPKINSVILLE   CLEAR     47  45  94 SW5       29.83F
BOWLING GREEN  PTCLDY    48  44  86 SW5       29.83F
GLASGOW        CLEAR     43  43 100 CALM      29.83S
$$

KYZ024-025-028>034-038-045-046-053-041200-
NORTH CENTRAL KENTUCKY

CITY           SKY/WX    TMP DP  RH WIND       PRES   REMARKS
LOUISVILLE/SDF PTCLDY    52  43  71 SW5       29.76F
LOUISVILLE/LOU PTCLDY    50  44  80 SW3       29.77F
FORT KNOX      NOT AVBL
$$

KYZ035>037-039>044-047>052-055>060-089>105-041200-
NORTHEAST KENTUCKY

CITY           SKY/WX    TMP DP  RH WIND       PRES   REMARKS
LEXINGTON      CLOUDY    48  44  86 SW8       29.78S
COVINGTON      CLOUDY    48  46  93 SW6       29.73F
FRANKFORT      CLOUDY    50  44  80 SW8       29.76F
$$

KYZ054-064>069-076>088-106>120-041200-
SOUTHEAST KENTUCKY

CITY           SKY/WX    TMP DP  RH WIND       PRES   REMARKS
JACKSON        CLOUDY    50  47  89 CALM      29.78F
LONDON         CLOUDY    51  44  77 SW3       29.81S
SOMERSET       PTCLDY    46  46 100 CALM      29.83S
MIDDLESBORO    CLOUDY    52  46  78 CALM      29.82S
MONTICELLO     SUNNY     45  44  97 NE7       29.84F
$$




USA.gov is the U.S. government's official web portal to all federal, state and local government web resources and services.